Regional Weather Roundup
Issued by NWS

Home | Current Version | Previous Version | Graphics & Text | Print | Product List | Glossary On
Versions: 1 2 3 4 5 6 7 8 9 10 11 12 13 14 15 16 17 18 19 20 21 22 23 24 25 26 27 28 29 30 31 32 33 34 35 36 37 38 39 40 41 42 43 44 45 46 47 48 49 50
000
ASUS45 KTFX 221919
RWRMT
MONTANA HOURLY WEATHER ROUNDUP
NATIONAL WEATHER SERVICE GREAT FALLS MT
119 PM MDT MON SEP 22 2014

NOTE: "FAIR" INDICATES FEW OR NO CLOUDS BELOW 12000 FEET WITH NO
SIGNIFICANT WEATHER AND/OR OBSTRUCTIONS TO VISIBILITY.

* THESE STATIONS ARE NOT UNDER NWS QUALITY CONTROL. THEY DO NOT
   REPORT WEATHER SUCH AS PRECIPITATION OR FOG.

MTZ001>007-043-222000-
WEST OF THE DIVIDE
CITY           SKY/WX    TMP DP  RH WIND       PRES   REMARKS
KALISPELL      PTCLDY    73  46  38 CALM      29.95F
MISSOULA       PTCLDY    75  43  32 CALM      29.98F
BUTTE          CLOUDY    63  46  54 SE7       30.11F
MULLAN PASS    PTCLDY    66  39  37 NW7       30.13S
* ESSEX        N/A       70  43  38 N3G8       N/A
* LINCOLN      N/A       63  44  50 W2         N/A
* POLSON       N/A       73  49  43 S3         N/A
* RONAN APT    PTCLDY    75  46  36 N/A        N/A
* SEELEY LAKE  N/A       76  43  31 SE3        N/A
* THOMP F APT  PTCLDY    54  53  96 S7G13      N/A
$$

MTZ008-052>055-222000-
SOUTHWEST MONTANA
CITY           SKY/WX    TMP DP  RH WIND       PRES   REMARKS
BOZEMAN        CLOUDY    66  52  61 NW5       30.07S
DILLON         CLOUDY    61  52  72 S5        30.12S
W YELLOWSTONE  CLOUDY    57  48  72 SW10      30.20F
* THREE FORKS  CLOUDY    64  43  47 N/A        N/A
* BOULDER HILL N/A       61  45  56 SW14G19    N/A
* MONIDA PASS  N/A       53  51  93 SE6        N/A
* RAYNOLDS PAS N/A       58  40  51 S7         N/A
* WHITEHALL    N/A       66  54  65 SW11G16    N/A
* WISE RIVER   N/A       56  44  64 N2         N/A
$$

MTZ009>010-012-014-046-048-049-054-222000-
EAST SLOPES AND CENTRAL MONTANA
CITY           SKY/WX    TMP DP  RH WIND       PRES   REMARKS
CUT BANK       SUNNY     82  41  23 VRB3      29.90F
GREAT FALLS    PTSUNNY   81  48  32 SW9       29.91F
HELENA         PTCLDY    73  52  48 E7        29.98F
MALMSTROM AFB  PTCLDY    79  50  36 W12       29.91F
* CONRAD       SUNNY     82  50  33 N/A        N/A
* EAST GLACIER N/A       76  42  30 W12G22     N/A
* MONARCH      N/A       72  42  34 SW9        N/A
* PENDROY      N/A       82  49  32 S5         N/A
* ROGERS PASS  N/A       68  40  36 SE6G16     N/A
* SAINT MARY   N/A       77  40  27 S8G17      N/A
* SWEET GRASS  N/A       77  48  36 S6         N/A
* WHITE SULPH  N/A       70  47  44 SW3        N/A
$$

MTZ011-013-016-021-035-040-045-047-050-051-222000-
NORTH CENTRAL MONTANA
CITY           SKY/WX    TMP DP  RH WIND       PRES   REMARKS
HAVRE          SUNNY     75  48  39 VRB3      29.87F
LEWISTOWN      PTCLDY    75  50  42 N5        29.95F
* CHINOOK      SUNNY     73  52  48 CALM      29.87F
* FORT BENTON  PTCLDY    79  50  36 SW3       29.87F
* CHESTER      N/A       73  46  38 SW4G9      N/A
* DENTON       N/A       77  46  33 E6         N/A
* GEYSER       N/A       78  43  29 W9G16      N/A
* JUDITH GAP   N/A       78  50  38 W6         N/A
* LOMA         N/A       75  49  40 SE5        N/A
$$

MTZ017>020-022>027-061-062-222000-
NORTHEAST MONTANA
CITY           SKY/WX    TMP DP  RH WIND       PRES   REMARKS
GLASGOW        SUNNY     73  45  37 S8G17     29.89F
GLENDIVE       PTCLDY    79  48  34 E12       29.92F
JORDAN         PTCLDY    79  46  31 SE10      29.89F
SIDNEY         SUNNY    N/A N/A N/A E10       29.92F
WOLF POINT     SUNNY     82  48  31 S6        29.89F
* BEAVER HILL  N/A       77  45  32 E18        N/A
* CIRCLE       N/A       80  51  36 SE6G13     N/A
* LINDSAY DVD  N/A       77  45  32 SE18G25    N/A
* NAVAJO       N/A       77  43  30 S14G19     N/A
$$

MTZ028>042-056>058-222000-
SOUTHCENTRAL AND SOUTHEAST MONTANA
CITY           SKY/WX    TMP DP  RH WIND       PRES   REMARKS
BAKER          PTSUNNY   73  46  38 SE13G20   29.96F
BILLINGS       PTSUNNY   75  50  42 SW7       29.95F
LIVINGSTON     CLOUDY    70  52  53 W16       30.04S
MILES CITY     PTSUNNY   77  46  33 S7        29.90F
* LAUREL APT   PTCLDY    77  46  33 SW10G15    N/A
* ROUNDUP APT  PTCLDY    79  46  31 SW14G21    N/A
* ALZADA       N/A       77  46  33 E6G11      N/A
* HYSHAM       N/A       71  47  43 W5         N/A
* LAME DEER    N/A       72  47  41 NW5G10     N/A
* REED POINT   N/A       76  50  40 W6G13      N/A
* ROSCOE HILL  N/A       74  40  29 NW8        N/A
$$

REGIONAL REPORTS...DAKOTAS
CITY           SKY/WX    TMP DP  RH WIND       PRES   REMARKS
WILLISTON      SUNNY     81  43  26 S9        29.94F
DICKINSON      SUNNY     77  48  36 S17       29.96F
BEACH          N/A       77  46  33 SE16G23   29.95F
CROSBY         SUNNY     81  41  24 SE10      29.94F
TIOGA          SUNNY     77  43  30 SE12      30.00F
WATFORD CITY   SUNNY     79  46  31 SE13      29.93F
BISMARCK       SUNNY     81  45  28 SE20G26   30.02F
GRAND FORKS    SUNNY     77  46  33 SW12      30.08F
FARGO          SUNNY     75  46  36 SW13      30.12F
BUFFALO SD     PTSUNNY   73  46  38 S13       29.91F
RAPID CITY     PTCLDY    75  46  36 S22G29    29.98F
$$

REGIONAL REPORTS...WYOMING/IDAHO/WASHINGTON
CITY           SKY/WX    TMP DP  RH WIND       PRES   REMARKS
GILLETTE       PTCLDY    81  48  32 S16G26    29.96F
SHERIDAN       PTSUNNY   75  46  36 NW3       29.96F
CODY           PTSUNNY   73  43  34 SW10G20   30.03F
YELLOWSTONE LA PTSUNNY   50  46  86 CALM      30.29R
SALMON         PTCLDY    72  52  49 SW13      30.05F
MULLAN PASS    PTCLDY    66  39  37 NW7       30.13S
SAND POINT     PTCLDY    72  52  49 SE6       29.94F
SPOKANE        PTCLDY    79  45  30 SW13      29.95F
$$

REGIONAL REPORTS...ALBERTA
CITY           SKY/WX    TMP DP  RH WIND       PRES   REMARKS
CALGARY        PTSUNNY   81  36  20 N8        29.87S
LETHBRIDGE     PTSUNNY   79  39  24 NW8       29.85F
MEDICINE HAT   N/A       81  50  34 SW17      29.80F
EDMONTON       PTSUNNY   81  43  26 W6        29.77S
WATERTON GATE  N/A       79  39  24 SW12G18    N/A
CARDSTON       N/A       81  45  28 NW8        N/A
MILK RIVER     N/A       82  43  25 W9         N/A
$$

REGIONAL REPORTS...SASKATCHEWAN
CITY           SKY/WX    TMP DP  RH WIND       PRES   REMARKS
SWIFT CURRENT  SUNNY     79  43  28 S15G24    29.84F
MOOSE JAW      N/A       81  46  29 SE12      29.88F
REGINA         N/A       77  46  33 SE15G21   29.91F
VAL MARIE      N/A       75  46  36 S10        N/A
ASSINIBOIA     N/A       81  43  26 S10G17     N/A
CORONACH       N/A       79  43  28 SE13       N/A

$$



USA.gov is the U.S. government's official web portal to all federal, state and local government web resources and services.